Change the Weather History Date:

Thursday, May 23, 2013

  Actual Average (KJAN) Record (KJAN)
Temperature  
Mean Temperature 76 °F 74 °F  
Max Temperature 88 °F 85 °F 95 °F (1948)
Min Temperature 66 °F 64 °F 49 °F (2002)
Degree Days  
Heating Degree Days 0 0  
Month to date heating degree days 10  
Since 1 July heating degree days 2389  
Cooling Degree Days 12 9  
Month to date cooling degree days 156  
Year to date cooling degree days 274  
Growing Degree Days 26 (Base 50)    
Moisture  
Dew Point 67 °F    
Average Humidity 79    
Maximum Humidity 94    
Minimum Humidity 46    
Precipitation  
Precipitation 0.00 in 0.14 in 1.61 in (1955)
Month to date precipitation 3.24  
Year to date precipitation 22.97  
Sea Level Pressure  
Sea Level Pressure 30.01 in    
Wind  
Wind Speed 1 mph (West)    
Max Wind Speed 8 mph    
Max Gust Speed -    
Visibility 7 miles    
Events Fog    
T = Trace of Precipitation, MM = Missing Value Source: NWS Daily Summary

Daily Weather History Graph

Daily Weather History Graph

Search for Another Location

Airport or City:

Trip Planner

Search our weather history database for the weather conditions in past years. The results will help you decide how hot, cold, wet, or windy it might be!

Date:

Astronomy

May. 23, 2013 Rise Set
Actual Time 5:58 AM CDT 7:57 PM CDT
Civil Twilight 5:30 AM CDT 8:25 PM CDT
Nautical Twilight 4:57 AM CDT 8:58 PM CDT
Astronomical Twilight 4:21 AM CDT 9:34 PM CDT
Moon 6:34 PM CDT (5/23) 4:37 AM CDT (5/23)
Length of Visible Light 14h 54m
Length of Day
13h 59m
Waxing Gibbous, 97% of the Moon is Illuminated
May 23
Waxing Gibbous
May 24
Full
May 31
Last Quarter
Jun 8
New
Jun 16
First Quarter

Hourly Weather History & Observations

Time (CDT) Temp. Heat Index Dew Point Humidity Pressure Visibility Wind Dir Wind Speed Gust Speed Precip Events Conditions
12:18 AM 69.8 °F - 68.0 °F 94% 29.97 in 1.5 mi Calm Calm - N/A   Clear
12:46 AM 68.0 °F - 66.2 °F 94% 29.97 in 3.0 mi Calm Calm - N/A   Clear
12:53 AM 69.1 °F - 66.9 °F 93% 29.95 in 5.0 mi Calm Calm - N/A   Clear
1:53 AM 69.1 °F - 66.9 °F 93% 29.94 in 4.0 mi Calm Calm - N/A   Clear
2:53 AM 69.1 °F - 66.9 °F 93% 29.95 in 5.0 mi Calm Calm - N/A   Clear
3:53 AM 69.1 °F - 66.9 °F 93% 29.95 in 9.0 mi WSW 3.5 mph - N/A   Clear
4:53 AM 69.1 °F - 66.9 °F 93% 29.96 in 6.0 mi Calm Calm - N/A   Clear
5:46 AM 66.2 °F - 64.4 °F 94% 30.00 in 2.5 mi Calm Calm - N/A   Partly Cloudy
5:53 AM 66.9 °F - 64.9 °F 93% 29.98 in 3.0 mi Calm Calm - N/A   Scattered Clouds
5:56 AM 66.2 °F - 64.4 °F 94% 30.00 in 2.5 mi Calm Calm - N/A   Mostly Cloudy
6:05 AM 66.2 °F - 64.4 °F 94% 30.01 in 1.0 mi Calm Calm - N/A   Mist
6:14 AM 66.2 °F - 64.4 °F 94% 30.01 in 2.0 mi Calm Calm - N/A   Scattered Clouds
6:22 AM 66.2 °F - 64.4 °F 94% 30.01 in 1.2 mi Calm Calm - N/A   Partly Cloudy
6:37 AM 66.2 °F - 64.4 °F 94% 30.02 in 0.2 mi Calm Calm - N/A Fog Fog
6:46 AM 66.2 °F - 64.4 °F 94% 30.02 in 1.0 mi Calm Calm - N/A   Mist
6:48 AM 66.2 °F - 64.4 °F 94% 30.02 in 4.0 mi Calm Calm - N/A   Partly Cloudy
6:53 AM 66.9 °F - 64.9 °F 93% 30.00 in 7.0 mi Calm Calm - N/A   Partly Cloudy
7:53 AM 72.0 °F - 69.1 °F 91% 30.01 in 9.0 mi SSW 3.5 mph - N/A   Partly Cloudy
8:10 AM 73.4 °F - 69.8 °F 88% 30.04 in 10.0 mi Calm Calm - N/A   Mostly Cloudy
8:53 AM 73.9 °F - 71.1 °F 91% 30.03 in 8.0 mi WNW 5.8 mph - N/A   Overcast
9:53 AM 75.9 °F - 71.1 °F 85% 30.02 in 10.0 mi Calm Calm - N/A   Overcast
10:14 AM 77.0 °F - 69.8 °F 78% 30.05 in 10.0 mi Calm Calm - N/A   Mostly Cloudy
10:26 AM 78.8 °F - 69.8 °F 74% 30.06 in 10.0 mi WSW 3.5 mph - N/A   Scattered Clouds
10:53 AM 81.0 °F 84.4 °F 70.0 °F 69% 30.04 in 10.0 mi NNW 3.5 mph - N/A   Partly Cloudy
11:20 AM 78.8 °F - 69.8 °F 74% 30.07 in 10.0 mi Calm Calm - N/A   Mostly Cloudy
11:31 AM 82.4 °F 85.4 °F 68.0 °F 62% 30.07 in 10.0 mi Calm Calm - N/A   Mostly Cloudy
11:53 AM 82.9 °F 85.8 °F 68.0 °F 60% 30.04 in 10.0 mi Calm Calm - N/A   Clear
12:53 PM 84.9 °F 87.1 °F 66.0 °F 53% 30.03 in 10.0 mi South 4.6 mph - N/A   Clear
1:53 PM 87.1 °F 88.3 °F 64.0 °F 46% 30.03 in 10.0 mi WSW 8.1 mph - N/A   Clear
2:53 PM 86.0 °F 87.3 °F 64.0 °F 48% 30.01 in 10.0 mi Variable 5.8 mph - N/A   Partly Cloudy
3:53 PM 86.0 °F 87.6 °F 64.9 °F 49% 30.00 in 10.0 mi West 8.1 mph - N/A   Scattered Clouds
4:53 PM 84.9 °F 86.6 °F 64.9 °F 51% 29.99 in 10.0 mi WNW 6.9 mph - N/A   Partly Cloudy
5:53 PM 84.0 °F 86.5 °F 66.9 °F 56% 29.98 in 10.0 mi Variable 5.8 mph - N/A   Clear
6:53 PM 84.9 °F 87.1 °F 66.0 °F 53% 29.98 in 10.0 mi North 4.6 mph - N/A   Clear
7:53 PM 80.1 °F 82.7 °F 68.0 °F 67% 29.99 in 10.0 mi Calm Calm - N/A   Clear
8:53 PM 78.1 °F - 69.1 °F 74% 30.01 in 10.0 mi Calm Calm - N/A   Mostly Cloudy
9:53 PM 78.1 °F - 69.1 °F 74% 30.03 in 10.0 mi Calm Calm - N/A   Scattered Clouds
10:53 PM 77.0 °F - 66.9 °F 71% 30.04 in 10.0 mi North 3.5 mph - N/A   Clear
11:53 PM 75.9 °F - 66.9 °F 74% 30.04 in 10.0 mi Calm Calm - N/A   Clear